Погода в Чавакачери

Шри-Ланка     9°38′59″N   80°02′25″E
темп.,
°C
ветер,
м/с
пор.,
м/с
влажн.,
%
обл.,
%
осадки,
мм/ч
давл.,
гПа
погр.,
м
17 мая, пн
пн1723:30+30ююз67757 0.0 1007792
02:30+29ююз797570 0.0 1006905
05:30+29ююз787652 0.3 1006880
08:30+31ююз67706 0.2 10081094
11:30+31ююз776732 0.3 10081148
14:30+31ююз66664 0.0 10061013
17:30+30ююз78712 0.0 1006634
20:30+30ю79740 0.0 1008699
18 мая, вт
вт1823:30+30ю787620 0.0 1008756
02:30+29ююз797637 0.7 1006780
05:30+30ююз89759 1.1 1007944
08:30+30ююз897119 0.0 10081068
11:30+31ююз8869100 0.0 10081230
14:30+31ююз88683 0.0 10061022
17:30+30ю910745 0.0 1006681
20:30+30ююз911770 0.0 1008762
19 мая, ср
ср1923:30+30ююз912775 0.0 1008852
02:30+29ююз91177100 0.0 1006960
05:30+30ююз91175100 0.0 10061060
08:30+31ююз8971100 0.0 10091071
11:30+31юз996997 0.0 10081149
14:30+31ююз996896 0.0 10051080
17:30+30ююз9117493 0.0 1005807
20:30+30ююз9127871 0.0 1007842
20 мая, чт
чт2023:30+30ююз10137984 0.0 1007943
02:30+29ююз101277100 0.0 10061019
05:30+30юз9117699 0.0 10071028
08:30+30юз91071100 0.0 10091006
11:30+31юз886870 0.0 10081233
14:30+31ююз886983 0.0 10061085
17:30+30ююз91074100 0.0 1006781
20:30+30ююз10127894 0.0 1007817
21 мая, пт
пт2123:30+29ююз1012785 0.0 1008985
02:30+29юз10127799 1.3 10061137
05:30+27зюз3586100 3.7 1007291
08:30+29з5770100 0.0 1009761
11:30+30зюз5664100 0.0 1009981
14:30+30юз5670100 0.0 1007827
17:30+30ююз8974100 0.0 1007835
20:30+30ююз91176100 0.0 1008867